Date,TemperatureHighF,TemperatureAvgF,TemperatureLowF,DewpointHighF,DewpointAvgF,DewpointLowF,HumidityHigh,HumidityAvg,HumidityLow,PressureMaxIn,PressureMinIn,WindSpeedMaxMPH,WindSpeedAvgMPH,GustSpeedMaxMPH,PrecipitationSumIn
2013-3-1,51.8,45.5,38.7,41.0,38.6,35.1,88,77,66,30.42,30.34,15,6,15,0.37
2013-3-2,54.7,46.9,39.0,38.8,36.9,33.9,84,69,52,30.35,29.96,29,5,29,0.00
2013-3-3,46.6,40.6,34.9,36.2,18.6,10.1,70,42,24,30.22,29.94,30,11,30,0.00
2013-3-4,49.1,37.3,27.9,25.9,18.3,9.1,75,49,22,30.32,30.14,9,3,9,0.00
2013-3-5,42.3,34.5,26.6,24.9,19.9,14.8,67,56,39,30.15,29.91,14,5,14,0.00
2013-3-6,46.6,37.4,33.4,35.3,29.7,24.0,86,74,62,29.92,29.68,21,4,21,0.22
2013-3-7,43.7,37.7,32.5,33.9,31.1,28.4,85,77,65,30.12,29.92,19,6,19,0.19
2013-3-8,45.0,35.5,30.6,33.4,29.5,26.6,86,79,62,30.17,30.08,10,3,10,0.00
2013-3-9,53.6,41.0,32.0,32.3,28.4,23.9,83,64,33,30.44,30.17,9,3,9,0.00
2013-3-10,46.8,38.5,32.5,34.4,30.0,26.1,83,72,47,30.45,30.29,19,5,19,0.01
2013-3-11,52.5,42.1,34.0,33.7,27.6,14.4,83,60,23,30.35,30.27,14,4,14,0.00
2013-3-12,52.0,43.3,35.4,42.6,35.1,25.1,84,73,62,30.28,30.12,23,4,23,0.13
2013-3-13,57.4,51.2,45.5,42.4,39.9,37.1,84,66,52,30.26,30.16,14,4,14,0.05
2013-3-14,61.7,51.8,43.2,41.4,38.1,32.1,76,61,42,30.21,30.05,17,5,17,0.00
2013-3-15,56.3,49.6,44.8,39.9,36.8,31.9,73,62,42,30.22,30.09,21,7,21,0.00
2013-3-16,50.7,44.6,37.6,38.0,35.1,27.1,82,69,51,30.12,29.76,31,9,31,0.14
2013-3-17,44.6,37.2,32.0,28.2,24.0,17.7,74,59,39,30.06,29.79,36,11,36,0.04
2013-3-18,40.5,35.0,31.6,31.5,24.5,18.5,79,65,49,30.21,30.03,30,8,30,0.04
2013-3-19,51.4,39.2,29.3,28.1,24.7,15.7,84,59,26,30.31,29.92,13,4,13,0.00
2013-3-20,51.3,43.2,37.8,43.6,35.5,27.7,85,74,59,29.92,29.58,42,9,42,1.04
2013-3-21,41.5,35.2,30.9,29.0,23.5,17.4,72,62,43,30.07,29.86,39,11,39,0.07
2013-3-22,43.5,33.4,29.5,27.3,23.2,20.4,78,66,47,30.28,30.06,12,4,12,0.02
2013-3-23,42.4,33.4,27.1,24.3,21.6,15.4,75,62,34,30.37,30.28,16,4,16,0.00
2013-3-24,48.7,35.7,25.0,26.1,18.7,10.1,75,53,24,30.39,30.22,8,3,8,0.00
2013-3-25,53.8,39.2,25.5,30.6,20.9,15.2,72,51,23,30.24,30.06,7,2,7,0.00
2013-3-26,62.6,46.2,7.7,36.0,28.2,-26.8,77,53,18,30.08,30.00,50,2,50,0.00
2013-3-27,56.8,45.0,36.3,41.8,36.6,30.4,86,73,56,30.07,30.02,9,2,9,0.00
2013-3-28,62.6,47.2,37.4,45.0,39.2,35.0,95,76,41,30.16,30.07,8,2,8,0.00
2013-3-29,61.7,49.1,39.0,42.2,38.5,32.4,95,70,36,30.28,30.15,99,4,99,0.00
2013-3-30,67.5,50.8,37.4,41.2,37.0,32.3,89,63,28,30.35,30.19,7,3,7,0.00
2013-3-31,73.4,52.9,37.8,41.0,35.7,26.5,91,60,19,30.20,30.00,14,3,14,0.00